sat.trackr.live / text

‹ back to catalog

UNKNOWN

NORAD 89484

UNKNOWN UNKNOWN UNKNOWN

§ Identity

Operator
Country
Launch date
Launch site
Launch vehicle
Mass (kg)
RCS (m²)

External: N2YO · Heavens-Above

§ Orbital elements

Epoch: 2026-05-23T06:20:19.568832Z

Period
150.01 min
Inclination
83.8086°
Eccentricity
0.2753330
Mean motion
9.59955348 rev/d
Perigee alt
398.9 km
Apogee alt
5,548.7 km
Semi-major
9,351.9 km
B*
3.3380e-2
RAAN
105.4309°
Arg perigee
164.9699°
Mean anomaly
205.3541°
Rev number
37,050

§ Raw data

UNKNOWN1 89484U          26143.26411538  .00150931  00000+0  33380-1 0  99952 89484  83.8086 105.4309 2753330 164.9699 205.3541  9.59955348370509

JSON: /api/v1/satellites/89484 · /tle

For live sub-satellite position, see the globe view (requires WebGL).

§ Visibility from observer

Set your observer location to see the next 7 days of passes ≥ 10°. The values pass through the URL so the page stays shareable.

No JS? Fill the form by hand. The geolocation button needs JavaScript.